TimeCDT,TemperatureF,Dew PointF,Humidity,Sea Level PressureIn,VisibilityMPH,Wind Direction,Wind SpeedMPH,Gust SpeedMPH,PrecipitationIn,Events,Conditions,WindDirDegrees,DateUTC
12:15 AM,53.6,37.4,54,29.77,10.0,West,8.1,-,N/A,,Clear,270,2012-10-03 05:15:00
12:35 AM,51.8,37.4,58,29.77,10.0,West,8.1,-,N/A,,Clear,280,2012-10-03 05:35:00
12:55 AM,53.6,37.4,54,29.77,10.0,WNW,9.2,-,N/A,,Clear,290,2012-10-03 05:55:00
1:15 AM,51.8,37.4,58,29.78,10.0,West,9.2,-,N/A,,Clear,280,2012-10-03 06:15:00
1:35 AM,50.0,37.4,62,29.79,10.0,West,8.1,-,N/A,,Clear,280,2012-10-03 06:35:00
1:55 AM,50.0,37.4,62,29.80,10.0,WNW,8.1,-,N/A,,Clear,290,2012-10-03 06:55:00
2:15 AM,50.0,37.4,62,29.82,10.0,NW,9.2,-,N/A,,Clear,310,2012-10-03 07:15:00
2:35 AM,50.0,39.2,66,29.84,10.0,WNW,9.2,-,N/A,,Clear,300,2012-10-03 07:35:00
2:55 AM,50.0,37.4,62,29.85,10.0,NW,10.4,-,N/A,,Clear,320,2012-10-03 07:55:00
3:15 AM,48.2,35.6,62,29.86,10.0,NW,12.7,-,N/A,,Clear,320,2012-10-03 08:15:00
3:35 AM,48.2,35.6,62,29.87,10.0,NW,12.7,-,N/A,,Clear,310,2012-10-03 08:35:00
3:55 AM,46.4,35.6,66,29.89,10.0,NW,12.7,17.3,N/A,,Clear,310,2012-10-03 08:55:00
4:15 AM,46.4,35.6,66,29.88,10.0,NW,11.5,-,N/A,,Clear,320,2012-10-03 09:15:00
4:35 AM,46.4,35.6,66,29.89,10.0,NW,6.9,-,N/A,,Clear,320,2012-10-03 09:35:00
4:55 AM,44.6,33.8,66,29.89,10.0,NW,9.2,-,N/A,,Clear,310,2012-10-03 09:55:00
5:15 AM,44.6,33.8,66,29.90,10.0,NW,10.4,-,N/A,,Clear,310,2012-10-03 10:15:00
5:35 AM,44.6,35.6,71,29.89,10.0,NW,9.2,-,N/A,,Clear,320,2012-10-03 10:35:00
5:55 AM,44.6,33.8,66,29.89,10.0,NW,9.2,-,N/A,,Clear,320,2012-10-03 10:55:00
6:15 AM,42.8,33.8,70,29.92,10.0,NW,8.1,-,N/A,,Clear,310,2012-10-03 11:15:00
6:35 AM,44.6,35.6,71,29.91,10.0,NW,11.5,-,N/A,,Clear,310,2012-10-03 11:35:00
6:55 AM,44.6,35.6,71,29.92,10.0,NW,10.4,-,N/A,,Clear,320,2012-10-03 11:55:00
7:15 AM,44.6,35.6,71,29.92,10.0,NW,10.4,-,N/A,,Clear,320,2012-10-03 12:15:00
7:35 AM,42.8,35.6,76,29.93,10.0,WNW,6.9,-,N/A,,Clear,290,2012-10-03 12:35:00
7:55 AM,42.8,35.6,76,29.95,10.0,West,5.8,-,N/A,,Clear,260,2012-10-03 12:55:00
8:15 AM,42.8,35.6,76,29.96,10.0,WNW,6.9,-,N/A,,Clear,300,2012-10-03 13:15:00
8:35 AM,44.6,35.6,71,29.97,10.0,NW,8.1,-,N/A,,Clear,320,2012-10-03 13:35:00
8:55 AM,44.6,37.4,76,29.96,10.0,NNW,10.4,-,N/A,,Clear,330,2012-10-03 13:55:00
9:15 AM,46.4,37.4,71,29.97,10.0,NNW,10.4,17.3,N/A,,Clear,330,2012-10-03 14:15:00
9:35 AM,46.4,39.2,76,29.97,10.0,NNW,11.5,17.3,N/A,,Clear,340,2012-10-03 14:35:00
9:55 AM,46.4,39.2,76,29.99,10.0,NNW,11.5,18.4,N/A,,Clear,340,2012-10-03 14:55:00
10:15 AM,48.2,41.0,76,30.00,10.0,NNW,11.5,-,N/A,,Clear,340,2012-10-03 15:15:00
10:35 AM,48.2,41.0,76,29.98,10.0,NNW,15.0,19.6,N/A,,Clear,340,2012-10-03 15:35:00
10:55 AM,48.2,41.0,76,29.96,8.0,North,19.6,27.6,N/A,,Clear,350,2012-10-03 15:55:00
11:15 AM,48.2,41.0,76,29.99,10.0,North,10.4,20.7,N/A,,Clear,350,2012-10-03 16:15:00
11:35 AM,48.2,41.0,76,29.99,10.0,North,15.0,18.4,N/A,,Scattered Clouds,10,2012-10-03 16:35:00
11:55 AM,48.2,41.0,76,29.99,10.0,North,9.2,19.6,N/A,,Mostly Cloudy,10,2012-10-03 16:55:00
12:15 PM,48.2,41.0,76,30.00,10.0,North,11.5,18.4,N/A,,Overcast,360,2012-10-03 17:15:00
12:35 PM,50.0,39.2,66,30.02,9.0,North,12.7,17.3,N/A,,Overcast,360,2012-10-03 17:35:00
12:55 PM,50.0,41.0,71,30.04,7.0,North,13.8,20.7,N/A,Rain,Light Rain,350,2012-10-03 17:55:00
1:15 PM,48.2,41.0,76,30.05,7.0,North,10.4,19.6,N/A,Rain,Light Rain,360,2012-10-03 18:15:00
1:35 PM,48.2,41.0,76,30.04,6.0,North,11.5,17.3,N/A,Rain,Light Rain,360,2012-10-03 18:35:00
1:55 PM,46.4,41.0,81,30.04,2.0,North,13.8,17.3,0.05,Rain,Rain,360,2012-10-03 18:55:00
2:15 PM,46.4,41.0,81,30.04,1.5,North,11.5,-,0.04,Rain,Rain,10,2012-10-03 19:15:00
2:35 PM,46.4,41.0,81,30.04,3.0,North,11.5,16.1,0.08,Rain,Light Rain,10,2012-10-03 19:35:00
2:55 PM,46.4,41.0,81,30.04,5.0,North,10.4,-,0.09,Rain,Light Rain,10,2012-10-03 19:55:00
3:15 PM,46.4,41.0,81,30.04,3.0,North,11.5,-,0.01,Rain,Light Rain,10,2012-10-03 20:15:00
3:35 PM,44.6,42.8,93,30.05,2.0,NNE,11.5,19.6,0.05,Rain,Light Rain,20,2012-10-03 20:35:00
3:55 PM,44.6,41.0,87,30.07,4.0,North,9.2,-,0.06,Rain,Light Rain,10,2012-10-03 20:55:00
4:15 PM,44.6,41.0,87,30.09,3.0,North,10.4,16.1,N/A,Rain,Light Rain,350,2012-10-03 21:15:00
4:35 PM,44.6,41.0,87,30.08,1.8,North,10.4,18.4,0.05,Rain,Rain,360,2012-10-03 21:35:00
4:55 PM,44.6,41.0,87,30.09,1.8,North,12.7,19.6,0.10,Rain,Rain,360,2012-10-03 21:55:00
5:15 PM,44.6,41.0,87,30.10,1.8,North,11.5,-,0.03,Rain,Rain,360,2012-10-03 22:15:00
5:35 PM,44.6,41.0,87,30.10,1.8,North,10.4,-,0.07,Rain,Rain,10,2012-10-03 22:35:00
5:55 PM,44.6,41.0,87,30.10,2.0,North,11.5,-,0.10,Rain,Light Rain,10,2012-10-03 22:55:00
6:15 PM,42.8,39.2,87,30.10,2.0,North,13.8,24.2,0.02,Rain,Light Rain,10,2012-10-03 23:15:00
6:35 PM,42.8,39.2,87,30.13,3.0,North,15.0,19.6,0.04,,Overcast,360,2012-10-03 23:35:00
6:55 PM,42.8,39.2,87,30.14,3.0,North,13.8,19.6,0.07,,Overcast,360,2012-10-03 23:55:00
7:15 PM,41.0,39.2,93,30.14,4.0,North,18.4,-,0.01,Rain,Light Rain,360,2012-10-04 00:15:00
7:35 PM,41.0,39.2,93,30.14,6.0,North,16.1,23.0,0.03,,Overcast,360,2012-10-04 00:35:00
7:55 PM,41.0,39.2,93,30.14,4.0,North,15.0,21.9,0.06,Rain,Light Rain,10,2012-10-04 00:55:00
8:15 PM,41.0,37.4,87,30.13,5.0,North,17.3,29.9,0.01,,Overcast,10,2012-10-04 01:15:00
8:35 PM,41.0,37.4,87,30.13,5.0,North,15.0,26.5,0.04,,Overcast,10,2012-10-04 01:35:00
8:55 PM,41.0,37.4,87,30.12,5.0,North,20.7,27.6,0.07,,Overcast,360,2012-10-04 01:55:00
9:15 PM,41.0,37.4,87,30.12,6.0,North,18.4,27.6,0.02,,Overcast,360,2012-10-04 02:15:00
9:35 PM,41.0,37.4,87,30.12,5.0,North,19.6,28.8,0.05,,Overcast,360,2012-10-04 02:35:00
9:55 PM,41.0,37.4,87,30.11,4.0,North,21.9,29.9,0.08,,Overcast,360,2012-10-04 02:55:00
10:15 PM,39.2,37.4,93,30.13,3.0,North,21.9,28.8,0.03,Rain,Rain,360,2012-10-04 03:15:00
10:35 PM,39.2,37.4,93,30.13,3.0,North,18.4,28.8,0.08,Rain,Rain,360,2012-10-04 03:35:00
10:55 PM,39.2,39.2,100,30.12,2.0,North,23.0,31.1,0.16,Rain,Rain,360,2012-10-04 03:55:00
11:15 PM,39.2,37.4,93,30.13,3.0,North,18.4,32.2,0.04,Rain,Rain,10,2012-10-04 04:15:00
11:35 PM,39.2,37.4,93,30.12,3.0,North,19.6,27.6,0.10,,Overcast,360,2012-10-04 04:35:00
11:55 PM,39.2,37.4,93,30.13,2.5,North,19.6,33.4,0.16,Rain,Rain,10,2012-10-04 04:55:00